Lid_Strength_Index
6 5 5 5 4 4 3 3 2 2 2 2 1 1 1 1 1 1 1 1 1 1 1 1 -0 -0 -0 -0 -1 0 0 -0 0
6 6 5 5 4 3 3 3 2 2 2 2 2 1 1 1 1 1 1 1 1 0 0 0 -0 -0 -0 -0 -0 -0 0 0 0
6 5 5 4 4 3 3 3 2 2 2 2 2 1 1 1 1 1 1 1 1 1 1 0 0 0 -0 -0 -0 -0 -0 1 0
6 5 5 4 4 3 3 2 2 2 2 2 2 1 1 1 1 1 1 1 1 1 1 1 0 0 0 0 0 -0 0 0 0
6 5 5 4 4 3 3 3 3 2 2 2 2 1 1 1 1 1 1 1 1 1 1 1 0 0 0 0 0 0 1 1 0
6 5 5 4 4 4 3 3 3 3 2 2 2 1 2 1 1 1 1 1 1 0 0 0 0 0 1 1 0 0 0 0 1
8 5 5 5 4 4 3 3 3 3 2 2 2 2 2 2 2 1 1 1 1 1 1 1 1 0 0 0 0 0 0 0 1
9 8 5 5 4 4 4 3 3 3 2 2 2 2 2 2 1 1 1 1 1 1 1 1 1 1 0 0 0 0 1 1 1
7 8 7 5 4 4 4 3 3 3 3 2 2 2 2 2 2 1 1 1 1 1 1 1 1 1 1 1 1 2 3 1 1
7 7 6 6 4 4 3 3 3 3 3 2 2 2 2 2 2 2 1 1 1 1 1 1 1 1 1 1 1 4 4 3 0
7 6 5 4 4 3 3 3 2 2 2 2 2 2 2 2 2 2 2 2 2 1 1 1 1 1 1 1 1 4 5 4 0
7 5 5 4 3 3 3 3 2 2 3 3 3 3 2 2 2 2 2 2 2 2 1 1 1 1 1 1 1 6 6 5 1
9 7 4 4 3 3 3 3 2 3 3 3 3 3 2 2 2 2 2 2 2 1 1 1 1 1 1 2 1 6 8 6 1
10 8 7 4 4 4 3 3 2 3 3 3 2 2 2 2 1 2 1 2 1 1 2 2 2 2 1 1 1 1 9 9 2
11 11 9 7 4 4 3 3 3 3 3 2 2 2 2 2 2 1 2 2 2 1 2 2 2 2 2 1 1 6 9 10 9
11 10 10 9 8 6 4 3 3 4 3 2 2 2 2 2 2 2 1 2 2 2 2 2 3 3 3 2 1 1 9 10 10
12 11 10 10 9 8 8 7 4 3 2 2 2 3 2 2 2 2 2 2 2 2 2 3 3 3 3 2 2 2 1 4 6
12 11 11 10 10 11 10 9 8 7 4 2 3 3 2 2 2 2 2 2 2 2 1 3 2 2 2 3 3 2 4 4 2
11 11 10 9 9 9 9 9 9 8 6 4 2 3 3 3 2 2 2 3 5 15 15 16 16 15 9 1 8 10 13 14 14
9 9 10 10 9 9 9 8 8 6 5 5 4 3 2 2 3 2 3 4 5 5 10 17 18 17 17 17 11 14 16 16 17